Location: Unspecified
(42.9300°N, 71.1866°W)
Time: 16:06:30
(UTC-04:00)

CZ-3 Stage 3 - Visible Passes

Search period start: 19 October 2017 00:00
Search period end: 29 October 2017 00:00
Orbit: 421 x 34777 km, 31.0° (Epoch: 18 October)

Date Brightness Start Highest point End Pass type
(mag) Time Alt. Az. Time Alt. Az. Time Alt. Az.
19 Oct 6.5 10:04:35 10° W 10:23:34 42° SSW 16:31:25 10° SSW visible
20 Oct 4.8 06:28:03 10° WSW 06:33:47 44° SSE 07:11:52 10° ESE visible
22 Oct 6.5 09:55:27 10° W 10:14:22 41° SSW 16:16:01 10° SSW visible
23 Oct 4.8 06:18:49 10° WSW 06:24:32 43° S 07:01:20 10° ESE visible
25 Oct 6.5 09:46:19 10° W 10:05:11 40° SSW 16:00:27 10° SSW visible
26 Oct 4.8 06:09:37 10° WSW 06:15:16 42° S 06:50:50 10° ESE visible
